Probability
0 0 0 1 1 1 1 1 1 0 0 0 1 0 0 0 0 0 0 0 0 0 0 0 0 0 0 0 0 0 0 0 0 0 0 0 0 0
0 0 1 2 2 2 2 2 1 1 1 1 1 1 0 0 0 0 0 0 0 0 0 0 0 0 0 0 0 0 0 0 0 0 0 0 0 0
0 0 1 2 2 2 1 1 1 2 1 1 1 1 1 1 0 0 0 0 0 0 0 0 0 0 0 0 0 0 0 0 0 0 0 0 0 0
0 0 0 1 1 2 1 1 2 2 1 1 1 2 2 1 1 1 0 0 0 0 0 0 0 0 0 0 0 0 0 0 0 0 0 0 0 0
1 1 0 1 2 3 3 3 3 2 1 1 1 1 1 2 2 2 2 2 1 0 0 0 0 0 0 0 0 0 0 0 0 0 0 0 0 0
4 3 2 2 2 2 3 6 6 5 5 4 2 1 2 3 3 2 2 3 2 1 0 0 0 0 0 0 0 0 0 0 0 0 0 0 0 0
11 9 6 3 2 1 2 6 8 7 7 7 5 3 5 7 6 4 3 3 2 1 1 0 1 1 1 1 0 0 0 0 0 0 0 0 0 0
20 17 12 6 2 1 2 3 4 4 5 6 5 5 7 9 9 7 7 6 4 4 3 2 2 3 3 1 0 0 0 0 0 0 0 0 0 0
24 23 17 9 4 3 2 1 2 1 2 2 2 4 6 9 9 9 10 10 9 9 8 5 4 4 3 2 0 0 0 0 0 0 0 0 0 0
21 21 18 12 6 3 3 3 3 2 1 0 1 2 4 7 8 8 8 8 8 10 9 7 4 3 2 2 1 0 0 0 0 0 0 0 0 0
15 15 13 9 4 2 1 1 2 2 1 0 0 1 1 3 5 5 4 5 5 6 8 7 3 1 1 1 1 0 0 0 0 0 0 0 0 0
12 10 7 4 2 0 0 0 1 2 2 1 2 2 2 2 2 2 3 5 5 5 8 8 4 1 1 0 0 0 1 1 0 0 0 0 0 0
8 7 5 2 1 0 0 0 0 1 2 3 4 5 5 5 4 2 3 6 7 5 6 7 6 4 3 2 1 2 3 3 1 1 0 0 0 0
5 5 3 1 0 0 0 0 0 0 2 3 4 5 6 7 7 5 4 5 6 4 3 4 5 6 6 4 3 3 5 4 3 3 2 1 0 0
2 1 1 0 0 0 0 0 0 0 1 2 2 3 6 7 6 5 4 4 3 2 1 2 3 5 5 4 3 3 3 2 3 4 4 2 1 0
0 0 0 0 1 1 0 0 0 0 0 1 1 3 4 4 3 3 3 3 2 0 0 0 1 2 2 2 1 1 1 0 1 3 5 4 2 1
0 0 0 0 1 1 0 0 0 0 0 0 0 1 2 1 1 1 1 1 1 0 0 0 0 1 1 0 0 0 0 0 1 4 6 5 3 3
0 0 0 0 1 1 0 0 0 0 0 0 0 1 1 0 0 0 0 0 0 0 0 0 0 0 0 0 0 0 0 0 1 3 5 4 3 3
0 0 0 0 0 0 0 0 0 0 0 0 0 0 0 0 0 0 0 0 0 0 0 0 0 0 0 0 0 0 0 0 0 1 2 3 2 2
0 0 0 0 0 0 0 0 0 0 0 0 0 0 0 0 0 0 0 0 0 0 0 0 0 0 0 0 0 0 0 0 0 0 1 2 2 1
0 0 0 0 0 0 0 0 0 0 0 0 0 0 0 0 0 0 0 0 0 0 0 0 0 0 0 0 0 0 0 0 0 0 0 1 1 0
0 0 0 0 0 0 0 0 0 0 0 0 0 1 0 0 0 0 0 0 0 0 0 0 0 0 0 0 0 0 0 0 0 0 0 0 0 0
0 1 1 1 0 0 0 0 0 0 0 0 0 1 0 0 0 0 0 0 0 0 0 0 0 0 0 0 0 0 0 0 0 0 0 0 0 0
Wind_Speed
6 6 5 3 4 3 4 4 5 5 4 5 5 5 4 3 4 5 5 7 7 6 6 6 7 7 7 7 7 7 7 7 7 7 8 8 9 11
4 4 5 5 4 4 4 4 5 6 5 1 3 4 3 4 6 6 6 7 9 9 9 8 9 9 9 9 9 9 9 9 9 9 9 9 9 10
7 7 7 6 4 4 4 5 5 5 6 4 3 3 4 7 4 6 7 7 8 13 11 10 10 10 10 10 11 11 11 11 11 11 11 11 11 11
8 8 8 6 7 6 5 6 5 4 6 6 4 5 7 7 7 7 8 8 7 9 12 11 11 11 12 12 12 12 12 12 12 12 12 12 12 12
8 9 9 8 8 7 7 7 6 6 6 7 7 5 5 6 7 8 9 7 9 8 12 14 14 13 13 13 13 13 13 13 13 13 13 13 13 13
8 8 9 9 9 8 7 8 7 7 6 7 7 6 6 6 6 7 7 7 8 8 7 7 11 14 14 14 14 14 14 14 14 14 14 14 14 14
9 9 9 8 7 6 7 7 7 7 7 7 7 7 6 5 6 7 7 6 7 7 7 7 8 9 11 14 16 16 15 15 14 14 15 15 15 15
9 9 9 9 9 9 8 8 7 8 9 8 7 7 7 7 6 7 7 8 8 5 6 8 7 8 8 9 10 14 15 15 15 15 15 15 15 15
8 7 7 7 8 9 10 12 11 10 10 10 11 9 8 7 7 9 8 9 9 7 6 9 9 9 9 9 8 11 13 14 15 15 15 15 16 16
7 8 7 7 6 6 7 9 10 10 10 11 10 10 9 7 7 9 9 9 10 10 9 10 10 10 9 9 9 13 14 15 15 16 16 16 16 16
7 7 6 6 3 3 7 8 9 8 8 9 9 8 7 6 6 8 8 9 10 9 7 9 10 10 10 10 9 12 14 15 15 16 16 16 16 15
5 5 4 4 2 4 7 8 9 8 8 7 8 10 11 11 11 10 10 10 10 9 7 7 9 10 10 9 8 7 9 13 16 17 17 17 16 13
3 3 2 4 3 4 6 7 7 7 8 8 8 8 8 7 8 9 9 9 10 10 8 6 9 10 11 11 10 9 10 9 10 12 15 18 17 15
2 2 1 3 3 4 4 4 5 6 7 7 7 6 6 6 5 6 8 9 10 12 11 10 10 10 12 13 12 11 10 10 11 11 11 11 15 18
1 2 1 2 3 5 5 5 6 6 5 6 6 6 5 5 6 6 8 9 11 12 12 11 11 10 11 12 13 12 12 11 11 12 11 11 11 11
1 2 4 5 5 3 4 5 5 4 4 6 6 6 5 5 5 6 6 6 7 8 8 9 10 11 11 13 12 13 13 12 12 12 12 12 12 12
3 2 2 2 2 2 3 3 3 3 4 4 5 5 5 5 5 5 5 7 8 8 8 7 8 9 11 11 12 12 12 12 12 11 11 13 13 13
4 2 2 3 3 3 3 3 3 3 4 5 5 6 6 6 6 6 6 7 8 8 9 8 8 9 10 10 11 13 12 12 12 12 12 13 14 13
3 2 3 3 4 4 4 4 5 4 4 5 5 5 6 6 6 7 7 7 8 8 8 8 9 9 12 13 11 9 11 11 12 12 12 13 14 13
3 3 3 4 4 4 4 5 5 5 5 5 5 6 6 7 7 7 8 9 9 9 9 9 9 9 10 12 12 12 12 13 12 13 12 12 13 13
4 4 4 4 5 5 5 5 6 6 6 6 6 6 7 7 7 8 8 9 9 10 10 10 8 9 10 10 12 12 12 10 11 12 14 13 14 13
5 5 5 5 5 6 6 6 6 6 6 6 7 7 7 7 8 9 9 9 9 10 11 10 10 10 10 11 13 14 14 13 12 15 17 17 13 13
6 6 6 6 6 6 6 7 8 7 7 7 7 7 8 8 8 8 9 10 10 11 11 11 10 10 11 11 12 13 17 16 12 11 11 13 18 21
Wind_Direction
216 209 237 228 237 247 255 267 273 266 227 186 211 192 210 214 155 225 220 172 198 221 231 236 239 243 247 250 252 252 254 256 257 255 253 252 251 251
237 238 240 236 223 234 242 249 261 276 280 230 206 202 210 238 181 231 243 174 209 222 231 236 239 242 244 246 247 248 249 250 251 251 250 250 251 253
219 219 226 246 240 233 231 239 242 250 260 259 228 203 213 253 222 235 241 238 226 204 217 231 239 243 245 245 246 247 248 248 248 249 249 249 250 251
222 223 224 220 223 247 243 241 244 253 259 264 255 226 216 231 237 247 251 244 254 198 204 224 236 240 243 245 245 246 247 248 248 249 249 248 249 249
226 225 226 227 226 231 236 243 239 232 241 256 253 245 236 229 234 241 248 252 261 228 204 217 228 235 240 241 242 243 244 246 247 248 248 249 249 249
231 233 233 231 230 233 232 240 248 250 241 250 254 245 238 229 238 249 247 229 246 258 247 234 223 224 233 236 237 238 240 241 243 245 247 248 249 249
229 232 235 237 244 244 250 239 235 240 243 242 248 250 245 239 242 249 258 260 248 250 255 250 236 235 226 227 231 234 236 238 240 242 244 246 247 248
233 232 232 222 226 229 252 269 273 255 255 257 254 254 257 256 260 267 270 270 269 250 255 262 260 260 256 253 224 213 223 233 239 242 243 245 245 246
238 238 242 233 219 228 221 226 242 251 259 265 267 266 265 261 266 262 261 271 276 283 272 271 267 264 261 259 221 214 224 233 240 243 245 245 245 246
238 238 240 249 241 241 244 238 238 235 234 240 256 265 270 279 264 264 272 264 262 258 257 266 268 266 266 265 231 221 228 235 241 245 247 248 248 248
237 237 237 239 226 224 248 254 256 254 239 233 245 259 275 276 271 267 262 262 265 265 248 258 270 274 273 269 257 222 225 233 239 244 246 247 248 250
228 227 221 234 230 218 245 253 257 261 265 247 236 241 246 241 225 240 259 264 270 273 265 258 270 277 277 269 267 260 242 235 234 238 240 242 242 247
234 230 196 178 218 229 243 255 264 275 269 261 253 247 243 243 236 233 243 258 268 272 283 284 278 278 277 281 280 274 271 269 257 247 237 236 233 234
259 271 125 154 207 229 238 257 269 265 261 260 258 257 257 256 257 257 254 256 259 267 278 281 276 277 279 279 279 280 278 275 273 272 271 250 231 231
309 51 70 197 224 224 221 235 247 252 261 266 269 272 273 274 272 266 258 254 255 258 262 262 263 269 271 274 278 279 280 277 274 272 271 269 267 254
274 164 192 214 237 257 229 222 242 273 287 284 285 289 290 282 274 277 279 279 276 274 265 262 263 266 267 270 274 276 276 276 276 274 275 273 268 264
322 274 265 257 261 272 280 289 286 277 273 283 290 290 290 290 287 285 282 281 279 284 287 280 270 264 264 270 273 274 276 277 276 278 275 273 270 266
296 290 306 309 315 322 318 316 312 315 314 308 301 297 297 294 292 289 283 281 283 286 287 290 290 286 277 266 252 268 274 277 280 279 278 275 273 271
290 340 346 343 341 338 331 325 322 325 320 306 303 305 303 297 295 292 289 287 286 287 288 288 286 285 285 286 279 257 280 287 286 282 277 274 274 275
344 356 351 345 338 330 324 322 318 315 311 306 303 300 298 295 292 290 288 288 290 291 289 285 284 287 289 293 295 291 275 277 281 282 283 282 278 276
1 357 351 345 339 332 326 320 317 314 314 308 301 301 299 296 295 296 294 293 287 286 288 290 297 299 291 285 280 279 282 271 271 277 284 283 282 279
355 350 346 340 333 328 324 320 316 312 310 303 306 306 302 300 299 298 297 298 295 293 295 297 299 293 286 282 284 289 292 290 275 256 251 256 269 276
356 352 344 337 335 329 324 320 317 313 312 311 310 309 308 305 303 299 297 294 294 294 295 296 296 292 289 288 288 289 291 292 288 286 275 254 244 251